Weather History for Silver Bay, MN

Change the Weather History Date:

Sunday, March 3, 2013

  Actual Average Record
Temperature  
Mean Temperature 10 °F -  
Max Temperature 30 °F 24 °F 39 °F (2006)
Min Temperature -11 °F 5 °F -29 °F (2014)
Degree Days  
Heating Degree Days 56    
Moisture  
Dew Point -1 °F    
Average Humidity 61    
Maximum Humidity 77    
Minimum Humidity 40    
Precipitation  
Precipitation 0.00 in - - ()
Sea Level Pressure  
Sea Level Pressure 30.10 in    
Wind  
Wind Speed 1 mph (East)    
Max Wind Speed 9 mph    
Max Gust Speed -    
Visibility 10 miles    
Events      
Averages and records for this station are not official NWS values.
T = Trace of Precipitation, MM = Missing Value Source: NWS Daily Summary

Daily Weather History Graph

Daily Weather History Graph

Search for Another Location

Airport:

Trip Planner

Search our weather history database for the weather conditions in past years. The results will help you decide how hot, cold, wet, or windy it might be!

Date:

Astronomy

Mar. 03, 2013 Rise Set
Actual Time 6:41 AM CST 5:54 PM CST
Civil Twilight 6:10 AM CST 6:24 PM CST
Nautical Twilight 5:35 AM CST 7:00 PM CST
Astronomical Twilight 5:00 AM CST 7:36 PM CST
Moon No Moon Rise 9:30 AM CST (3/3)
Length of Visible Light 12h 14m
Length of Day
11h 12m
Waning Gibbous, 63% of the Moon is Illuminated
Mar 3
Waning Gibbous
Mar 4
Last Quarter
Mar 11
New
Mar 19
First Quarter
Mar 27
Full

Hourly Weather History & Observations

Time (CST) Temp. Windchill Dew Point Humidity Pressure Visibility Wind Dir Wind Speed Gust Speed Precip Events Conditions
12:13 AM -7.6 °F - -14.8 °F 71% 30.14 in 10.0 mi Calm Calm - N/A   Clear
12:33 AM -7.6 °F - -13.0 °F 77% 30.14 in 10.0 mi Calm Calm - N/A   Clear
12:53 AM -7.6 °F - -14.8 °F 71% 30.14 in 10.0 mi Calm Calm - N/A   Clear
1:33 AM -9.4 °F - -14.8 °F 77% 30.14 in 10.0 mi Calm Calm - N/A   Clear
1:53 AM -9.4 °F - -14.8 °F 77% 30.14 in 10.0 mi Calm Calm - N/A   Clear
2:13 AM -9.4 °F - -16.6 °F 71% 30.13 in 10.0 mi Calm Calm - N/A   Clear
2:33 AM -9.4 °F - -16.6 °F 71% 30.13 in 10.0 mi Calm Calm - N/A   Clear
2:53 AM -11.2 °F - -16.6 °F 77% 30.12 in 10.0 mi Calm Calm - N/A   Clear
3:13 AM -11.2 °F - -18.4 °F 70% 30.12 in 10.0 mi Calm Calm - N/A   Clear
3:33 AM -11.2 °F - -18.4 °F 70% 30.13 in 10.0 mi Calm Calm - N/A   Clear
3:53 AM -11.2 °F - -18.4 °F 70% 30.13 in 10.0 mi Calm Calm - N/A   Clear
4:13 AM -11.2 °F - -18.4 °F 70% 30.13 in 10.0 mi Calm Calm - N/A   Clear
4:33 AM -11.2 °F - -18.4 °F 70% 30.13 in 10.0 mi Calm Calm - N/A   Clear
4:53 AM -11.2 °F - -18.4 °F 70% 30.13 in 10.0 mi Calm Calm - N/A   Scattered Clouds
5:13 AM -11.2 °F - -18.4 °F 70% 30.13 in 10.0 mi Calm Calm - N/A   Mostly Cloudy
5:33 AM -11.2 °F - -18.4 °F 70% 30.13 in 10.0 mi Calm Calm - N/A   Mostly Cloudy
5:53 AM -11.2 °F - -18.4 °F 70% 30.14 in 10.0 mi Calm Calm - N/A   Scattered Clouds
6:13 AM -11.2 °F - -18.4 °F 70% 30.14 in 10.0 mi Calm Calm - N/A   Scattered Clouds
6:53 AM -11.2 °F - -18.4 °F 70% 30.14 in 10.0 mi Calm Calm - N/A   Clear
7:13 AM -11.2 °F - -16.6 °F 77% 30.13 in 10.0 mi Calm Calm - N/A   Clear
7:33 AM -5.8 °F - -13.0 °F 71% 30.13 in 10.0 mi Calm Calm - N/A   Clear
7:53 AM -0.4 °F - -7.6 °F 72% 30.12 in 10.0 mi Calm Calm - N/A   Clear
8:13 AM 3.2 °F - -4.0 °F 72% 30.12 in 10.0 mi Calm Calm - N/A   Clear
8:33 AM 10.4 °F - 1.4 °F 67% 30.12 in 10.0 mi Calm Calm - N/A   Clear
8:53 AM 17.6 °F - 6.8 °F 63% 30.11 in 10.0 mi Calm Calm - N/A   Clear
9:13 AM 21.2 °F - 6.8 °F 54% 30.11 in 10.0 mi Calm Calm - N/A   Clear
9:33 AM 26.6 °F - 10.4 °F 51% 30.11 in 10.0 mi Calm Calm - N/A   Clear
9:53 AM 26.6 °F - 10.4 °F 51% 30.11 in 10.0 mi Calm Calm - N/A   Clear
10:13 AM 24.8 °F 19.1 °F 10.4 °F 54% 30.11 in 10.0 mi ESE 4.6 mph - N/A   Clear
10:34 AM 26.6 °F - 10.4 °F 51% 30.11 in 10.0 mi Calm Calm - N/A   Clear
10:53 AM 26.6 °F 22.6 °F 10.4 °F 51% 30.11 in 10.0 mi SSE 3.5 mph - N/A   Clear
11:13 AM 26.6 °F 21.2 °F 10.4 °F 51% 30.11 in 10.0 mi SSE 4.6 mph - N/A   Clear
11:33 AM 28.4 °F - 10.4 °F 47% 30.10 in 10.0 mi Calm Calm - N/A   Clear
11:54 AM 30.2 °F 22.6 °F 10.4 °F 44% 30.10 in 10.0 mi SSE 8.1 mph - N/A   Clear
12:13 PM 30.2 °F 26.7 °F 10.4 °F 44% 30.09 in 10.0 mi SSE 3.5 mph - N/A   Clear
12:33 PM 30.2 °F 23.4 °F 8.6 °F 40% 30.08 in 10.0 mi SE 6.9 mph - N/A   Clear
12:53 PM 28.4 °F 21.2 °F 8.6 °F 43% 30.08 in 10.0 mi East 6.9 mph - N/A   Clear
1:13 PM 28.4 °F 23.3 °F 8.6 °F 43% 30.08 in 10.0 mi SE 4.6 mph - N/A   Clear
1:33 PM 28.4 °F 23.3 °F 8.6 °F 43% 30.07 in 10.0 mi ESE 4.6 mph - N/A   Clear
1:53 PM 28.4 °F 22.2 °F 8.6 °F 43% 30.07 in 10.0 mi East 5.8 mph - N/A   Clear
2:33 PM 26.6 °F 19.1 °F 8.6 °F 47% 30.07 in 10.0 mi SE 6.9 mph - N/A   Clear
2:53 PM 26.6 °F 21.2 °F 8.6 °F 47% 30.07 in 10.0 mi East 4.6 mph - N/A   Clear
3:33 PM 24.8 °F 16.9 °F 8.6 °F 50% 30.07 in 10.0 mi East 6.9 mph - N/A   Clear
3:53 PM 24.8 °F 16.1 °F 6.8 °F 46% 30.07 in 10.0 mi East 8.1 mph - N/A   Clear
4:13 PM 24.8 °F 16.1 °F 6.8 °F 46% 30.06 in 10.0 mi ENE 8.1 mph - N/A   Clear
4:34 PM 23.0 °F 13.1 °F 6.8 °F 50% 30.06 in 10.0 mi East 9.2 mph - N/A   Clear
4:53 PM 21.2 °F 13.6 °F 6.8 °F 54% 30.07 in 10.0 mi ENE 5.8 mph - N/A   Clear
5:13 PM 19.4 °F 8.6 °F 6.8 °F 58% 30.06 in 10.0 mi ENE 9.2 mph - N/A   Clear
5:33 PM 19.4 °F 10.4 °F 6.8 °F 58% 30.07 in 10.0 mi East 6.9 mph - N/A   Clear
5:53 PM 17.6 °F 12.3 °F 5.0 °F 58% 30.07 in 10.0 mi ENE 3.5 mph - N/A   Clear
6:13 PM 17.6 °F - 5.0 °F 58% 30.07 in 10.0 mi Calm Calm - N/A   Clear
6:33 PM 15.8 °F - 5.0 °F 62% 30.07 in 10.0 mi Calm Calm - N/A   Clear
6:53 PM 15.8 °F 10.2 °F 5.0 °F 62% 30.06 in 10.0 mi NNE 3.5 mph - N/A   Clear
7:13 PM 15.8 °F 10.2 °F 5.0 °F 62% 30.07 in 10.0 mi NE 3.5 mph - N/A   Clear
7:33 PM 15.8 °F 10.2 °F 5.0 °F 62% 30.07 in 10.0 mi NNE 3.5 mph - N/A   Clear
7:53 PM 14.0 °F 8.2 °F 5.0 °F 67% 30.07 in 10.0 mi NNE 3.5 mph - N/A   Scattered Clouds
8:13 PM 14.0 °F - 3.2 °F 62% 30.07 in 10.0 mi Calm Calm - N/A   Scattered Clouds
8:33 PM 12.2 °F - 3.2 °F 67% 30.07 in 10.0 mi Calm Calm - N/A   Mostly Cloudy
8:53 PM 14.0 °F 8.2 °F 3.2 °F 62% 30.07 in 10.0 mi NE 3.5 mph - N/A   Overcast
9:13 PM 14.0 °F 8.2 °F 3.2 °F 62% 30.07 in 10.0 mi NE 3.5 mph - N/A   Mostly Cloudy
9:33 PM 14.0 °F - 3.2 °F 62% 30.06 in 10.0 mi Calm Calm - N/A   Overcast
9:53 PM 12.2 °F - 3.2 °F 67% 30.07 in 10.0 mi Calm Calm - N/A   Overcast
10:13 PM 12.2 °F 6.1 °F 3.2 °F 67% 30.07 in 10.0 mi NNE 3.5 mph - N/A   Overcast
10:33 PM 12.2 °F - 3.2 °F 67% 30.07 in 10.0 mi Calm Calm - N/A   Mostly Cloudy
10:53 PM 10.4 °F - 1.4 °F 67% 30.07 in 10.0 mi Calm Calm - N/A   Scattered Clouds
11:13 PM 10.4 °F - 1.4 °F 67% 30.07 in 10.0 mi Calm Calm - N/A   Scattered Clouds
11:33 PM 6.8 °F - -0.4 °F 72% 30.07 in 10.0 mi Calm Calm - N/A   Mostly Cloudy
11:53 PM 6.8 °F - -0.4 °F 72% 30.07 in 10.0 mi Calm Calm - N/A   Overcast